Powrót do katalogu

OPS 4947

TRANSIT 17

AktywnyNawigacjaPO
NORAD 2965·PAYLOAD·🇺🇸 United States

Wystrzelony Sep 25, 1967 z Vandenberg Space Force Base

Loading…

Następne Przeloty (najbliższe 24 godziny)

TLE

ŚwieżeSource: Space-Track

Epoka: Sep 14, 2026, 06:11 UTC

1 02965U 67092A   26257.25798904  .00000100  00000-0  12997-3 0  9994
2 02965  89.2621   3.5766 0048784 153.8469 235.0955 13.53512181908248

Śledź OPS 4947 w czasie rzeczywistym z AllMySat

Download on the App Store